Flag for Canada Weather past 2 weeks in Steinbach, Manitoba, Canada

Now
46 °F

Cool.


Feels Like: 46 °F
Forecast: 36 / 64 °F
Wind: 2 mph from Northwest

Location: Winnipeg The Forks

Current Time: Apr 27, 2015 at 11:12:25 PM

Latest Report: Apr 27, 2015 at 10:00 PM


Visibility: N/A

Pressure: 30.26 "Hg

Humidity: 80%

Dew point: 40 °F

Location of SteinbachLocation

Historic Weather in Steinbach — Graph

°F

Steinbach temperature yesterday

Maximum temperature yesterday: 69 °F (at 6:00 PM)
Minimum temperature yesterday: 39 °F (at 6:00 AM)
Average temperature yesterday: 55 °F

Past Weeks' High & Low Weather Summary

 TemperatureHumidityPressure
High76 °F (Apr 15, 6:00 PM)93% (Apr 19, 10:00 AM)30.27 "Hg (Apr 19, 10:00 AM)
Low23 °F (Apr 23, 7:00 AM)14% (Apr 13, 1:00 PM)29.59 "Hg (Apr 20, 1:00 PM)
Average46 °F48%29.96 "Hg
* Reported Apr 12 9:00 PM — Apr 27 9:00 PM, Steinbach, Weather by CustomWeather, © 2015

Note: Actual official high and low records may vary slightly from our data, if they occured in-between our weather recording intervals... More about our weather records

Advertising

Steinbach weather history for previous 24 hours

 ConditionsComfort  
Time TempWeatherWind HumidityBarometerVisibility
9:00 PM
Mon, Apr 27
46 °FCool.2 mph79%30.27 "HgN/A
8:00 PM46 °FCool.3 mph81%30.27 "HgN/A
7:00 PM47 °FCool.3 mph85%30.27 "HgN/A
6:00 PM47 °FCool.3 mph83%30.26 "HgN/A
5:00 PM47 °FCool.5 mph79%30.25 "HgN/A
4:00 PM46 °FCool.5 mph74%30.27 "HgN/A
3:00 PM47 °FCool.7 mph80%30.26 "HgN/A
2:00 PM49 °FCool.6 mph74%30.26 "HgN/A
1:00 PM50 °FCool.6 mph72%30.25 "HgN/A
12:00 PM51 °FCool.6 mph70%30.25 "HgN/A
11:00 AM50 °FCool.7 mph68%30.25 "HgN/A
10:00 AM51 °FCool.5 mph65%30.23 "HgN/A
9:00 AM49 °FCool.6 mph70%30.22 "HgN/A
8:00 AM48 °FCool.3 mph74%30.21 "HgN/A
7:00 AM50 °FCool.5 mph80%30.19 "HgN/A
6:00 AM52 °FCool.2 mph81%30.18 "HgN/A
5:00 AM54 °FCool.2 mph75%30.17 "HgN/A
4:00 AM55 °FCool.3 mph70%30.16 "HgN/A
3:00 AM56 °FCool.2 mph66%30.15 "HgN/A
2:00 AM56 °FCool.2 mph68%30.15 "HgN/A
1:00 AM55 °FCool.1 mph70%30.15 "HgN/A
12:00 AM56 °FCool.1 mph68%30.15 "HgN/A
11:00 PM
Sun, Apr 26
58 °FCool.1 mph65%30.14 "HgN/A
Weather by CustomWeather, © 2015

See weather overviewHow to use our weather pages